#timestamp,LO_Frequency,Hit,StdDev 
1545148815.6,286046998.3,N
1545148835.4,286047002.7,N
1545148855.2,286047000.0,N
1545148875.1,286047002.2,N
1545148876.0,286047002.2,N
1545148895.8,286046999.7,N
1545148915.6,286047000.1,N
1545148935.5,286047002.8,N
1545148955.3,286047001.3,N
1545148975.2,286047001.4,N
1545148995.9,286047002.5,N
1545149015.7,286047002.2,N
1545149035.6,286047002.5,N
1545149055.4,286047001.6,N
1545149075.3,286047002.6,N
1545149095.1,286047002.0,N
1545149096.0,286047002.0,N
1545149115.8,286047003.9,N
1545149135.7,286047003.1,N
1545149155.5,286047003.7,N
1545149175.3,286047003.9,N
1545149195.2,286047003.7,N
1545149215.0,286047005.9,N
1545149215.9,286047005.9,N
1545149235.8,286047004.2,N
1545149255.6,286047003.8,N
1545149275.4,286047002.2,N
1545149295.3,286047007.2,Y
1545149315.1,286047004.3,P
1545149335.9,286047004.1,P
1545149355.7,286047005.6,P
1545149375.5,286047001.4,N
1545149395.4,286047001.7,N
1545149415.2,286047001.4,N
1545149435.0,286047002.5,N
1545149436.0,286047002.5,N
1545149455.8,286047003.7,N
1545149475.6,286047003.2,N
1545149495.5,286047001.6,N
1545149515.3,286047002.1,N
1545149535.1,286047002.8,N
1545149555.9,286047000.0,N
1545149575.7,286047001.6,N
1545149595.5,286047000.9,N
1545149615.4,286047000.8,N
1545149635.2,286047000.5,N
1545149655.1,286046999.8,N
1545149656.0,286046999.8,N
1545149675.8,286047000.4,N
1545149695.6,286047000.0,N
1545149715.5,286047003.8,N
1545149735.3,286047005.6,Y
1545149755.2,286046999.7,P
1545149775.9,286047001.0,N
1545149795.7,286046998.2,N
1545149815.6,286046998.3,N
1545149835.4,286046999.2,N
1545149855.2,286046998.3,N
1545149875.1,286046999.3,N
1545149876.0,286046999.3,N
1545149895.8,286047000.7,N
1545149915.7,286047001.5,N
1545149935.5,286047001.4,N
1545149955.3,286047002.5,N
1545149975.2,286047001.5,N
1545149995.9,286047001.7,N
1545150015.7,286047000.3,N
1545150035.6,286047000.8,N
1545150055.4,286046998.7,N
1545150075.2,286046998.9,N
1545150095.1,286046998.9,N
1545150096.0,286046998.9,N
1545150115.8,286047000.7,N
1545150135.7,286047002.6,N
1545150155.5,286047001.0,N
1545150175.3,286046999.3,N
1545150195.2,286047000.0,N
1545150215.0,286046998.3,N
1545150215.9,286046998.3,N
1545150235.8,286047001.1,N
1545150255.6,286046999.0,N
1545150275.4,286046998.7,N
1545150295.3,286046999.3,N
1545150315.1,286046999.1,N
1545150335.8,286046999.1,N
1545150355.7,286047001.2,N
1545150375.5,286046998.9,N
1545150395.3,286046998.6,N
1545150415.2,286046998.2,N
1545150435.0,286046998.2,N
1545150435.9,286046998.2,N
1545150455.8,286046998.6,N
1545150475.6,286047001.1,N
1545150495.4,286047001.2,N
1545150515.3,286047000.8,N
1545150535.1,286046998.2,N
1545150555.9,286047001.1,N
1545150575.7,286046998.2,N
1545150595.5,286046998.2,N
1545150615.4,286046999.1,N
1545150635.2,286046999.5,N
1545150655.0,286046998.6,N
1545150655.9,286046998.6,N
1545150675.8,286046999.0,N
1545150695.6,286047001.2,N
1545150715.4,286047000.5,N
1545150735.3,286047000.4,N
1545150755.1,286047002.8,N
1545150775.9,286047000.2,N
1545150795.7,286047000.9,N
1545150815.5,286046999.9,N
1545150835.4,286047000.4,N
1545150855.2,286047000.8,N
1545150875.0,286046998.6,N
1545150875.9,286046998.6,N
1545150895.8,286046999.8,N
1545150915.6,286047001.6,N
1545150935.5,286047000.0,N
1545150955.3,286047000.8,N
1545150975.1,286047002.0,N
1545150995.9,286047002.3,N
1545151015.7,286047000.4,N
1545151035.5,286046998.1,N
1545151055.4,286047000.9,N
1545151075.2,286047002.2,N
1545151095.1,286047004.4,Y
1545151096.0,286047004.4,P
1545151115.8,286047002.5,N
1545151135.6,286047002.5,N
1545151155.5,286047002.1,N
1545151175.3,286047003.4,N
1545151195.2,286047003.6,N
1545151215.9,286047005.4,Y
1545151235.7,286046999.7,P
1545151255.6,286046998.2,N
1545151275.4,286046998.7,N
1545151295.2,286046996.6,N
1545151315.1,286047001.0,N
1545151316.0,286047001.0,N
1545151335.8,286046998.7,N
1545151355.7,286046997.0,N
1545151375.5,286046997.9,N
1545151395.3,286046997.3,N
1545151415.2,286047001.1,N
1545151435.0,286047001.6,N
1545151435.9,286047001.6,N
1545151455.7,286047002.0,N
1545151475.6,286047001.6,N
1545151495.4,286047002.2,N
1545151515.3,286046999.7,N
1545151535.1,286047001.1,N
1545151536.0,286047001.1,N
1545151555.8,286047001.2,N
1545151575.7,286046998.3,N
1545151595.5,286046999.5,N
1545151615.3,286046999.2,N
1545151635.2,286046998.1,N
1545151655.0,286046998.7,N
1545151655.9,286046998.7,N
1545151675.8,286047000.5,N
1545151695.6,286046999.4,N
1545151715.4,286046997.0,N
1545151735.3,286046996.5,N
1545151755.1,286046998.8,N
1545151775.8,286047000.9,N
1545151795.7,286046999.7,N
1545151815.5,286047000.2,N
1545151835.4,286046998.5,N
1545151855.2,286046998.4,N
1545151875.0,286047001.0,N
1545151875.9,286047001.0,N
1545151895.8,286047001.2,N
1545151915.6,286046998.5,N
1545151935.4,286047000.9,N
1545151955.3,286046998.1,N
1545151975.1,286046999.7,N
1545151995.9,286047000.7,N
1545152015.7,286047001.1,N
1545152035.5,286046999.2,N
1545152055.4,286046998.2,N
1545152075.2,286047000.3,N
1545152095.0,286047000.9,N
1545152095.9,286047000.9,N
1545152115.8,286047000.6,N
1545152135.6,286047000.9,N
1545152155.5,286046998.5,N
1545152175.3,286046998.7,N
1545152195.1,286047000.0,N
1545152215.9,286046998.7,N
1545152235.7,286046999.4,N
1545152255.5,286046996.9,N
1545152275.4,286046999.2,N
1545152295.2,286046996.6,N
1545152315.0,286046996.8,N
1545152316.0,286046996.8,N
1545152335.8,286046999.3,N
1545152355.6,286046998.7,N
1545152375.5,286046999.0,N
1545152395.3,286046996.9,N
